Sacramento, CA

1:43 PM PDT on May 27, 2017 (GMT -0700)
Sacramento Executive

Weather History for KSAC - May, 2014

Change the Weather History Date:

Wednesday, May 14, 2014

  Actual Average Record
Temperature  
Mean Temperature 76 °F -  
Max Temperature 96 °F 80 °F 100 °F (1972)
Min Temperature 56 °F 51 °F 41 °F (1948)
Degree Days  
Heating Degree Days 0    
Cooling Degree Days 11    
Growing Degree Days 26 (Base 50)    
Moisture  
Dew Point 47 °F    
Average Humidity 43    
Maximum Humidity 72    
Minimum Humidity 13    
Precipitation  
Precipitation 0.00 in 0.03 in 0.20 in (1953)
Month to date precipitation T 0.36  
Year to date precipitation 7.89 11.37  
Since 1 July precipitation 9.79  
Sea Level Pressure  
Sea Level Pressure 30.07 in    
Wind  
Wind Speed 2 mph (SW)    
Max Wind Speed 9 mph    
Max Gust Speed 15 mph    
Visibility 10 miles    
Events      
T = Trace of Precipitation, MM = Missing Value Source: NWS Daily Summary

Daily Weather History Graph

Daily Weather History Graph

Search for Another Location

Airport or City:

Trip Planner

Search our weather history database for the weather conditions in past years. The results will help you decide how hot, cold, wet, or windy it might be!

Date:

Astronomy

May. 14, 2014 Rise Set
Actual Time 5:55 AM PDT 8:09 PM PDT
Civil Twilight 5:25 AM PDT 8:39 PM PDT
Nautical Twilight 4:49 AM PDT 9:16 PM PDT
Astronomical Twilight 4:09 AM PDT 9:56 PM PDT
Moon 8:21 PM PDT (5/14) 5:57 AM PDT (5/14)
Length of Visible Light 15h 14m
Length of Day
14h 14m
Full, 100% of the Moon is Illuminated
May 14
Full
May 14
Full
May 21
Last Quarter
May 28
New
Jun 5
First Quarter

Hourly Weather History & Observations

Time (PDT) Temp. Dew Point Humidity Pressure Visibility Wind Dir Wind Speed Gust Speed Precip Events Conditions
12:53 AM 66.0 °F 46.9 °F 50% 30.10 in 10.0 mi Calm Calm - N/A   Clear
1:53 AM 62.6 °F 48.2 °F 59% 30.10 in 10.0 mi Calm Calm - N/A   Clear
2:53 AM 61.0 °F 48.0 °F 62% 30.09 in 10.0 mi ESE 3.5 mph - N/A   Clear
3:53 AM 60.1 °F 48.0 °F 64% 30.09 in 10.0 mi Calm Calm - N/A   Clear
4:53 AM 57.9 °F 48.9 °F 72% 30.09 in 10.0 mi Calm Calm - N/A   Clear
5:53 AM 57.0 °F 48.9 °F 74% 30.10 in 10.0 mi Calm Calm - N/A   Clear
6:53 AM 61.0 °F 50.0 °F 67% 30.12 in 10.0 mi Calm Calm - N/A   Clear
7:53 AM 69.8 °F 48.2 °F 46% 30.12 in 10.0 mi NE 3.5 mph - N/A   Clear
8:53 AM 75.0 °F 46.0 °F 36% 30.13 in 10.0 mi Variable 3.5 mph - N/A   Clear
9:53 AM 79.0 °F 46.9 °F 32% 30.12 in 10.0 mi North 4.6 mph - N/A   Clear
10:53 AM 82.9 °F 46.0 °F 27% 30.12 in 10.0 mi Calm Calm - N/A   Clear
11:53 AM 87.1 °F 43.0 °F 21% 30.11 in 10.0 mi Variable 3.5 mph - N/A   Clear
12:53 PM 90.0 °F 44.1 °F 20% 30.09 in 10.0 mi Variable 3.5 mph - N/A   Clear
1:53 PM 91.4 °F 42.8 °F 18% 30.07 in 10.0 mi Variable 3.5 mph - N/A   Clear
2:53 PM 93.9 °F 37.9 °F 14% 30.06 in 10.0 mi WSW 8.1 mph - N/A   Clear
3:53 PM 95.0 °F 37.0 °F 13% 30.04 in 10.0 mi West 8.1 mph - N/A   Clear
4:53 PM 95.0 °F 43.0 °F 17% 30.02 in 10.0 mi SSW 9.2 mph - N/A   Clear
5:53 PM 93.9 °F 46.9 °F 20% 30.01 in 10.0 mi WSW 8.1 mph - N/A   Clear
6:53 PM 91.9 °F 45.0 °F 20% 29.99 in 10.0 mi Variable 4.6 mph - N/A   Clear
7:53 PM 86.0 °F 52.0 °F 31% 30.00 in 10.0 mi SSW 5.8 mph - N/A   Clear
8:53 PM 79.0 °F 53.1 °F 40% 30.01 in 10.0 mi Calm Calm - N/A   Clear
9:53 PM 73.9 °F 51.1 °F 45% 30.03 in 10.0 mi South 3.5 mph - N/A   Clear
10:53 PM 69.1 °F 51.1 °F 53% 30.03 in 10.0 mi Calm Calm - N/A   Clear
11:53 PM 71.1 °F 44.1 °F 38% 30.04 in 10.0 mi SSW 3.5 mph - N/A   Clear